FW2517 Weather Reports


time (UTC)temp
F
wind
direction
speed
knots
gust
knots
rain 1hr
in
rain 24hr
in
rain mn
in
humidity
%
barometer
mb
20260508184527 68 223 0.0 6.1 0.00 0.01 0.00 34 1016.6
20260508183025 68 241 0.0 7.0 0.00 0.01 0.00 39 1016.7
20260508181521 67 94 0.0 0.0 0.00 0.01 0.00 36 1016.9
20260508180021 67 355 0.0 0.0 0.00 0.01 0.00 36 1017.0
20260508174521 67 180 0.0 1.7 0.00 0.01 0.00 36 1017.1
20260508173021 66 220 0.0 1.7 0.00 0.01 0.00 38 1017.3
20260508171548 67 169 0.0 0.9 0.00 0.01 0.00 39 1017.5
20260508170054 67 5 0.0 2.6 0.00 0.01 0.00 34 1017.7
20260508164515 65 43 0.0 7.8 0.00 0.01 0.00 34 1018.2
20260508163017 66 51 0.0 5.2 0.00 0.01 0.00 34 1018.3
20260508161511 66 114 0.0 0.9 0.00 0.01 0.00 34 1018.4
20260508160007 65 80 0.0 0.9 0.00 0.01 0.00 33 1018.6
20260508154509 65 178 0.0 0.9 0.00 0.01 0.00 36 1018.7
20260508153003 63 244 0.0 1.7 0.00 0.01 0.00 39 1018.9
20260508151506 64 5 0.0 0.9 0.00 0.01 0.00 36 1018.8
20260508150059 64 296 0.0 0.9 0.00 0.01 0.00 37 1018.7
20260508144609 63 126 0.0 3.5 0.00 0.06 0.00 38 1018.8
20260508143105 63 92 0.0 0.0 0.00 0.06 0.00 38 1019.0
20260508141605 62 85 0.0 3.5 0.00 0.06 0.00 39 1018.9
20260508140051 61 103 3.5 7.8 0.00 0.06 0.00 41 1019.0
20260508134607 61 98 0.0 6.1 0.00 0.06 0.00 42 1019.0
20260508133057 61 82 0.0 1.7 0.00 0.06 0.00 47 1018.8
20260508131548 59 90 3.5 7.0 0.00 0.06 0.00 56 1018.8
20260508130014 59 87 0.9 6.1 0.00 0.06 0.00 64 1018.7
20260508124508 58 91 0.0 0.0 0.00 0.07 0.00 71 1018.5
20260508123005 56 92 0.0 1.7 0.00 0.07 0.00 74 1018.5
20260508121505 54 83 0.0 0.0 0.00 0.07 0.00 77 1018.3
20260508120002 52 83 0.0 0.0 0.00 0.07 0.00 81 1018.2
20260508114501 50 83 0.0 0.0 0.00 0.12 0.00 84 1017.9
20260508113056 48 83 0.0 0.0 0.00 0.12 0.00 83 1017.7
20260508111556 48 83 0.0 0.0 0.00 0.12 0.00 82 1017.4
20260508110052 47 83 0.0 0.0 0.00 0.12 0.00 81 1017.1
20260508104550 47 83 0.0 0.0 0.00 0.14 0.00 81 1017.0
20260508103018 47 83 0.0 0.0 0.00 0.14 0.00 80 1016.6
20260508101517 48 83 0.0 0.0 0.00 0.14 0.00 80 1016.1
20260508100012 47 83 0.0 0.0 0.00 0.14 0.00 80 1016.1
20260508094509 48 83 0.0 0.0 0.00 0.14 0.00 80 1016.0
20260508093011 48 83 0.0 0.0 0.00 0.14 0.00 80 1016.0
20260508091508 48 83 0.0 0.0 0.00 0.14 0.00 80 1015.9
20260508090004 49 83 0.0 0.0 0.00 0.14 0.00 79 1015.8
20260508084502 48 83 0.0 0.0 0.00 0.15 0.00 79 1015.5
20260508083100 49 83 0.0 0.0 0.00 0.15 0.00 79 1015.6
20260508083002 49 83 0.0 0.0 0.00 0.15 0.00 79 1015.5
20260508081607 49 83 0.0 0.0 0.00 0.15 0.00 79 1015.2
20260508080055 49 83 0.0 0.0 0.00 0.15 0.00 79 1015.3
20260508074553 50 83 0.0 0.0 0.00 0.25 0.00 78 1015.1
20260508073107 50 83 0.0 0.0 0.00 0.25 0.00 78 1015.1
20260508071550 50 83 0.0 0.0 0.00 0.25 0.00 78 1015.2
20260508070017 51 83 0.0 0.0 0.00 0.25 0.00 78 1015.0
20260508064516 51 83 0.0 0.0 0.00 0.43 0.00 78 1014.9
20260508063012 52 83 0.0 0.0 0.00 0.43 0.00 78 1014.9
20260508061511 52 83 0.0 0.0 0.00 0.43 0.00 76 1015.0
20260508060008 52 83 0.0 0.0 0.00 0.43 0.00 76 1015.0
20260508054506 53 83 0.0 0.0 0.00 0.56 0.00 75 1015.0
20260508053035 54 83 0.0 0.0 0.00 0.56 0.00 75 1014.9
20260508051530 54 83 0.0 0.0 0.00 0.56 0.00 73 1014.7
20260508050026 56 83 0.0 0.0 0.00 0.56 0.00 73 1014.7
20260508044523 57 83 0.0 0.0 0.00 0.57 0.00 71 1014.6
20260508043020 58 83 0.0 0.0 0.00 0.57 0.00 70 1014.5
20260508041521 58 83 0.0 0.0 0.00 0.57 0.00 70 1014.5
20260508040052 58 83 0.0 0.0 0.00 0.57 0.00 70 1014.3
20260508034549 59 83 0.0 0.0 0.00 0.59 0.57 70 1014.4
20260508033046 59 83 0.0 0.0 0.00 0.59 0.57 72 1014.2
20260508031544 59 83 0.0 0.0 0.00 0.59 0.57 71 1014.2
20260508030037 59 83 0.0 0.0 0.00 0.59 0.57 72 1014.0
20260508024559 60 83 0.0 0.0 0.00 0.94 0.57 74 1014.0
20260508023132 60 83 0.0 0.0 0.00 0.94 0.57 76 1013.7
20260508021530 60 83 0.0 0.9 0.00 0.94 0.57 76 1013.6
20260508020029 60 78 0.0 0.0 0.00 0.94 0.57 78 1013.3
20260508014527 60 78 0.0 0.0 0.00 1.21 0.57 78 1013.2
20260508013032 61 76 0.0 0.0 0.00 1.21 0.57 78 1012.7
20260508011526 61 75 0.0 0.9 0.00 1.21 0.57 78 1012.5
20260508010022 61 69 0.0 0.9 0.00 1.21 0.57 78 1012.0
20260508004536 61 86 0.0 0.9 0.00 1.40 0.57 78 1011.8
20260508003019 62 85 0.0 0.0 0.00 1.40 0.57 77 1011.5
20260508001549 62 80 0.0 4.3 0.01 1.40 0.57 77 1011.1
20260508000045 62 75 0.0 5.2 0.01 1.40 0.57 77 1010.6
20260507234544 63 15 1.7 6.1 0.01 1.44 0.57 76 1010.2
20260507233042 64 47 0.0 8.7 0.01 1.44 0.57 76 1010.2
20260507231544 65 71 2.6 9.6 0.00 1.43 0.56 74 1009.6
20260507230055 66 79 0.0 8.7 0.00 1.43 0.56 74 1009.3
20260507224538 68 38 1.7 8.7 0.00 1.43 0.56 73 1008.7
20260507223037 74 345 2.6 7.8 0.00 1.43 0.56 65 1008.4
20260507221541 74 232 0.0 0.0 0.00 1.43 0.56 66 1007.7
20260507220036 74 229 0.0 0.9 0.00 1.43 0.56 65 1007.6
20260507214536 76 313 0.0 1.7 0.00 1.43 0.56 62 1007.7
20260507213033 76 286 0.0 5.2 0.00 1.43 0.56 63 1007.6
20260507211531 76 209 0.0 7.8 0.00 1.43 0.56 62 1007.4
20260507210031 76 225 0.0 1.7 0.00 1.43 0.56 64 1007.3
20260507204602 75 173 0.0 1.7 0.00 1.43 0.56 67 1007.6
20260507203129 74 151 0.0 10.4 0.00 1.43 0.56 66 1007.6
20260507201555 75 179 2.6 9.6 0.00 1.43 0.56 64 1006.9
20260507200056 76 227 0.0 1.7 0.00 1.43 0.56 62 1007.6
20260507194602 76 288 0.0 1.7 0.00 1.43 0.56 63 1007.7
20260507193049 76 205 0.0 1.7 0.00 1.43 0.56 62 1007.8
20260507191547 75 229 0.0 5.2 0.00 1.43 0.56 65 1008.2
20260507190052 75 245 0.0 1.7 0.00 1.43 0.56 64 1008.6